Location: Frizzleburg
(41.0764°N, 80.4548°W)
Time: 19:57:37
(UTC+00:00)

Cosmos 1980 Rocket - Pass Details

Date: 17 November 2019
Orbit: 828 x 851 km, 71.0° (Epoch: 10 December)

Event Time Altitude Azimuth Distance (km) Brightness Sun altitude
Rises 01:06:32 0° 237° (WSW) 3,387 6.0 -34.7°
Reaches altitude 10° 01:09:22 10° 249° (WSW) 2,461 5.3 -35.2°
Maximum altitude 01:14:03 26° 306° (NW) 1,604 4.0 -36.1°
Enters shadow 01:15:16 24° 326° (NW) 1,678 4.0 -36.3°
